CW3330 Weather Reports


time (UTC)temp
C
wind
direction
speed
KPH
gust
KPH
rain 1hr
cm
rain 24hr
cm
rain mn
cm
humidity
%
barometer
mb
20260510220515 6 325 1.6 6.4 0.00 0.00 0.00 75 1008.8
20260510215507 6 317 3.2 6.4 0.00 0.00 0.00 75 1008.9
20260510214506 7 317 3.2 4.8 0.00 0.00 0.00 74 1008.9
20260510213513 7 317 4.8 6.4 0.00 0.00 0.00 74 1009.0
20260510212948 7 0 6.4 11.3 0.00 0.00 0.00 73 1009.1
20260510211508 7 302 4.8 8.0 0.00 0.00 0.00 72 1009.1
20260510210511 8 328 3.2 8.0 0.00 0.00 0.00 72 1009.2
20260510205507 8 325 6.4 12.9 0.00 0.00 0.00 71 1009.2
20260510204957 8 302 8.0 14.5 0.00 0.00 0.00 71 1009.2
20260510203513 8 304 4.8 16.1 0.00 0.00 0.00 71 1009.3
20260510202513 8 315 6.4 12.9 0.00 0.00 0.00 73 1009.5
20260510201509 8 312 4.8 12.9 0.00 0.00 0.00 73 1009.5
20260510200514 9 296 6.4 14.5 0.00 0.00 0.00 73 1009.6
20260510195946 9 295 6.4 8.0 0.00 0.00 0.00 72 1009.7
20260510194506 10 296 4.8 12.9 0.00 0.00 0.00 72 1009.6
20260510193513 10 309 4.8 14.5 0.00 0.00 0.00 71 1009.6
20260510192507 10 317 6.4 12.9 0.00 0.00 0.00 70 1009.6
20260510191506 11 298 6.4 12.9 0.00 0.00 0.00 70 1009.6
20260510190514 11 320 6.4 14.5 0.00 0.00 0.00 69 1009.6
20260510185949 12 286 6.4 17.7 0.00 0.00 0.00 68 1009.7
20260510184508 12 295 9.7 19.3 0.00 0.00 0.00 67 1009.6
20260510183507 13 298 9.7 17.7 0.00 0.00 0.00 66 1009.6
20260510182507 13 301 4.8 11.3 0.00 0.00 0.00 69 1009.6
20260510181521 13 302 4.8 12.9 0.00 0.00 0.00 68 1009.6
20260510180511 14 312 6.4 14.5 0.00 0.00 0.00 67 1009.6
20260510175513 14 304 4.8 8.0 0.00 0.00 0.00 70 1009.7
20260510174507 14 49 6.4 16.1 0.00 0.00 0.00 71 1009.6
20260510173513 14 28 6.4 17.7 0.00 0.00 0.00 71 1009.6
20260510172529 14 34 6.4 14.5 0.00 0.00 0.00 65 1009.6
20260510171506 14 51 3.2 12.9 0.00 0.00 0.00 70 1009.7
20260510170512 14 9 8.0 16.1 0.00 0.00 0.00 69 1009.8
20260510165507 15 28 8.0 17.7 0.00 0.00 0.00 67 1009.9
20260510164508 15 15 9.7 17.7 0.00 0.00 0.00 66 1009.8
20260510163513 16 306 8.0 20.9 0.00 0.00 0.00 63 1009.9
20260510162520 16 322 9.7 17.7 0.00 0.00 0.00 59 1010.0
20260510161506 17 314 8.0 17.7 0.00 0.00 0.00 59 1010.0
20260510160951 17 306 4.8 19.3 0.00 0.00 0.00 61 1010.2
20260510155508 17 298 12.9 16.1 0.00 0.00 0.00 59 1010.3
20260510154506 16 294 8.0 14.5 0.00 0.00 0.00 56 1010.4
20260510153513 16 327 3.2 6.4 0.00 0.00 0.00 61 1010.4
20260510152510 16 42 4.8 11.3 0.00 0.00 0.00 60 1010.6
20260510144505 16 5 4.8 8.0 0.00 0.00 0.00 63 1011.2
20260510143508 16 249 4.8 11.3 0.00 0.00 0.00 63 1011.4
20260510142946 15 255 4.8 6.4 0.00 0.00 0.00 64 1011.5
20260510142012 15 263 1.6 6.4 0.00 0.00 0.00 57 1011.6
20260510140506 15 299 1.6 4.8 0.00 0.00 0.00 60 1011.6
20260510135508 15 296 1.6 4.8 0.00 0.00 0.00 65 1011.8
20260510134506 15 297 3.2 6.4 0.00 0.00 0.00 66 1011.9
20260510133506 15 300 3.2 6.4 0.00 0.00 0.00 65 1011.9
20260510132507 15 329 1.6 6.4 0.00 0.00 0.00 65 1012.0
20260510131506 15 306 3.2 8.0 0.00 0.00 0.00 59 1012.0
20260510130506 15 295 4.8 11.3 0.00 0.00 0.00 63 1012.0
20260510125507 15 319 1.6 8.0 0.00 0.00 0.00 55 1012.1
20260510124506 15 309 3.2 8.0 0.00 0.00 0.00 63 1012.2
20260510123941 16 240 4.8 14.5 0.00 0.00 0.00 63 1012.3
20260510122509 16 296 3.2 12.9 0.00 0.00 0.00 64 1012.4
20260510121512 15 296 4.8 8.0 0.00 0.00 0.00 65 1012.5
20260510120507 15 303 4.8 12.9 0.00 0.00 0.00 66 1012.5
20260510115506 15 316 4.8 11.3 0.00 0.00 0.00 67 1012.5
20260510114513 15 324 4.8 12.9 0.00 0.00 0.00 61 1012.7
20260510113508 15 305 4.8 8.0 0.00 0.00 0.00 67 1012.8
20260510112517 15 282 3.2 11.3 0.00 0.00 0.00 65 1012.9
20260510111513 15 314 0.0 6.4 0.00 0.00 0.00 66 1013.0
20260510105506 15 298 3.2 8.0 0.00 0.00 0.00 64 1012.9
20260510104506 15 311 4.8 11.3 0.00 0.00 0.00 65 1012.9
20260510103506 16 297 4.8 14.5 0.00 0.00 0.00 65 1013.1
20260510102506 16 317 4.8 12.9 0.00 0.00 0.00 65 1013.1
20260510101515 16 272 6.4 12.9 0.00 0.00 0.00 66 1013.2
20260510100507 16 10 3.2 12.9 0.00 0.00 0.00 59 1013.3
20260510095946 16 260 4.8 12.9 0.00 0.00 0.00 62 1013.4
20260510094519 15 282 4.8 12.9 0.00 0.00 0.00 62 1013.5
20260510092953 15 300 6.4 14.5 0.00 0.00 0.00 66 1013.6
20260510091521 15 318 6.4 12.9 0.00 0.00 0.00 65 1013.7
20260510090508 15 296 4.8 12.9 0.00 0.00 0.00 66 1013.7
20260510085506 15 325 3.2 6.4 0.00 0.00 0.00 63 1013.7
20260510084512 15 326 1.6 14.5 0.00 0.00 0.00 62 1013.7
20260510083522 15 306 6.4 12.9 0.00 0.00 0.00 64 1013.7
20260510082956 15 317 1.6 14.5 0.00 0.00 0.00 61 1013.9
20260510081512 15 311 4.8 11.3 0.00 0.00 0.00 63 1014.0
20260510080522 15 273 3.2 11.3 0.00 0.00 0.00 61 1014.1
20260510080021 15 258 3.2 8.0 0.00 0.00 0.00 62 1014.1
20260510075023 14 257 4.8 8.0 0.00 0.00 0.00 58 1014.2
20260510073509 14 221 1.6 8.0 0.00 0.00 0.00 64 1014.3
20260510073049 13 205 3.2 6.4 0.00 0.00 0.00 67 1014.4
20260510071521 13 205 3.2 6.4 0.00 0.00 0.00 69 1014.4
20260510070949 13 204 1.6 6.4 0.00 0.00 0.00 70 1014.6
20260510065506 13 202 0.0 3.2 0.00 0.00 0.00 66 1014.5
20260510064521 13 201 1.6 6.4 0.00 0.00 0.00 73 1014.3
20260510063508 12 201 1.6 4.8 0.00 0.00 0.00 74 1014.2
20260510062512 12 201 0.0 3.2 0.00 0.00 0.00 75 1014.2
20260510061506 12 196 0.0 0.0 0.00 0.00 0.00 77 1014.4
20260510060507 12 196 0.0 0.0 0.00 0.00 0.00 70 1014.5
20260510055954 12 196 0.0 0.0 0.00 0.00 0.00 76 1014.5
20260510054508 11 196 0.0 0.0 0.00 0.00 0.00 78 1014.4
20260510053507 11 196 0.0 0.0 0.00 0.00 0.00 79 1014.5
20260510052945 11 196 0.0 0.0 0.00 0.00 0.00 79 1014.5
20260510051956 11 196 0.0 0.0 0.00 0.00 0.00 80 1014.5
20260510045506 10 196 0.0 0.0 0.00 0.00 0.00 82 1014.6
20260510044506 10 196 0.0 0.0 0.00 0.00 0.00 83 1014.5
20260510043512 10 196 0.0 0.0 0.00 0.00 0.00 83 1014.7
20260510042506 10 196 0.0 0.0 0.00 0.00 0.00 84 1014.7
20260510041507 10 196 0.0 0.0 0.00 0.00 0.00 83 1014.9
20260510040950 10 196 0.0 0.0 0.00 0.00 0.00 83 1014.9
20260510035512 10 196 0.0 0.0 0.00 0.00 0.00 83 1015.1
20260510034508 10 196 0.0 0.0 0.00 0.00 0.00 82 1015.1
20260510033508 10 196 0.0 0.0 0.00 0.00 0.00 82 1015.1
20260510032505 10 196 0.0 0.0 0.00 0.00 0.00 82 1015.2
20260510031512 10 196 0.0 0.0 0.00 0.00 0.00 81 1015.4
20260510030519 10 196 0.0 0.0 0.00 0.00 0.00 81 1015.4
20260510025507 10 196 0.0 0.0 0.00 0.00 0.00 80 1015.4
20260510024512 10 196 0.0 0.0 0.00 0.00 0.00 80 1015.5
20260510023508 11 196 0.0 0.0 0.00 0.00 0.00 79 1015.6
20260510022506 11 196 0.0 0.0 0.00 0.00 0.00 78 1015.7
20260510021506 11 196 0.0 0.0 0.00 0.00 0.00 77 1015.6
20260510020507 11 196 0.0 0.0 0.00 0.00 0.00 76 1015.8
20260510015512 11 196 0.0 0.0 0.00 0.00 0.00 76 1015.8
20260510014952 11 196 0.0 0.0 0.00 0.00 0.00 76 1015.8
20260510013506 11 196 0.0 0.0 0.00 0.00 0.00 75 1016.0
20260510011505 11 196 0.0 0.0 0.00 0.00 0.00 75 1015.9
20260510010507 11 196 0.0 0.0 0.00 0.00 0.00 74 1015.9
20260510005513 11 196 0.0 0.0 0.00 0.00 0.00 74 1015.9
20260510004505 11 196 0.0 4.8 0.00 0.00 0.00 74 1016.0
20260510003512 11 196 3.2 4.8 0.00 0.00 0.00 73 1016.2
20260510002940 12 198 4.8 6.4 0.00 0.00 0.00 73 1016.5
20260510001506 12 200 1.6 6.4 0.00 0.00 0.00 73 1016.7
20260510000512 12 200 3.2 6.4 0.00 0.00 0.00 72 1016.8
20260509235506 12 198 1.6 6.4 0.00 0.00 0.00 72 1016.9
20260509234505 12 198 4.8 6.4 0.00 0.00 0.00 72 1016.9
20260509233532 12 158 1.6 12.9 0.00 0.00 0.00 72 1016.7
20260509232505 12 194 1.6 8.0 0.00 0.00 0.00 72 1017.0
20260509231512 12 189 0.0 4.8 0.00 0.00 0.00 72 1017.2
20260509224952 12 149 1.6 3.2 0.00 0.00 0.00 72 1017.6
20260509223946 12 150 1.6 3.2 0.00 0.00 0.00 72 1017.7
20260509222508 12 150 1.6 6.4 0.00 0.00 0.00 72 1017.7
20260509221512 12 188 4.8 8.0 0.00 0.00 0.00 72 1018.0